Location: Gleizolles
(44.4833°N, 6.7667°E)
Time: 01:26:26
(UTC+00:00)

Tiros 1 despin weight - Pass Details

Date: 29 June 2024
Orbit: 576 x 620 km, 48.2° (Epoch: 24 July)

Event Time Altitude Azimuth Distance (km) Brightness Sun altitude
Rises 10:46:16 0° 263° (W) 2,877 ? 66.3°
Reaches altitude 10° 10:48:36 10° 267° (W) 1,978 ? 66.5°
Maximum altitude 10:53:06 61° 348° (NNW) 705 ? 66.9°
Drops below altitude 10° 10:57:39 10° 70° (ENE) 1,989 ? 67.3°
Sets 11:00:00 0° 73° (ENE) 2,895 ? 67.4°
